#Datum;Uhrzeit;WR;Pac;DaySum;Status;WR;Pac;DaySum;Status;Pdc1;Udc;Temp;WR;Pac;DaySum;Status;Pdc1;Udc;Temp;WR;Pac;DaySum;Status;Pdc1;Udc;Temp;WR;Pac;DaySum;Status;Pdc1;Pdc2;Udc1;Udc2;Temp;WR;Pac;DaySum;Status;Pdc1;Pdc2;Udc1;Udc2;Temp;WR;Pac;DaySum;Status;Pdc1;Udc;Temp;WR;Pac;DaySum;Status;Pdc1;Udc;Temp;WR;Pac;DaySum;Status;Pdc1;Udc;Temp
19.01.19;23:55:00;1;360;12878;0;2;0;16477;0;0;0;0;3;0;10881;0;0;0;0;4;0;12462;0;0;0;0;5;0;41995;0;0;0;0;0;0;6;0;32140;0;0;0;0;0;0;7;0;29487;0;0;0;0;8;0;28625;0;0;0;0;9;0;15437;0;0;0;0
19.01.19;23:50:00;1;716;12834;0;2;0;16477;0;0;0;0;3;0;10881;0;0;0;0;4;0;12462;0;0;0;0;5;0;41995;0;0;0;0;0;0;6;0;32140;0;0;0;0;0;0;7;0;29487;0;0;0;0;8;0;28625;0;0;0;0;9;0;15437;0;0;0;0
19.01.19;23:45:00;1;357;12795;0;2;0;16477;0;0;0;0;3;0;10881;0;0;0;0;4;0;12462;0;0;0;0;5;0;41995;0;0;0;0;0;0;6;0;32140;0;0;0;0;0;0;7;0;29487;0;0;0;0;8;0;28625;0;0;0;0;9;0;15437;0;0;0;0
19.01.19;23:40:00;1;403;12765;0;2;0;16477;0;0;0;0;3;0;10881;0;0;0;0;4;0;12462;0;0;0;0;5;0;41995;0;0;0;0;0;0;6;0;32140;0;0;0;0;0;0;7;0;29487;0;0;0;0;8;0;28625;0;0;0;0;9;0;15437;0;0;0;0
19.01.19;23:35:00;1;396;12731;0;2;0;16477;0;0;0;0;3;0;10881;0;0;0;0;4;0;12462;0;0;0;0;5;0;41995;0;0;0;0;0;0;6;0;32140;0;0;0;0;0;0;7;0;29487;0;0;0;0;8;0;28625;0;0;0;0;9;0;15437;0;0;0;0
19.01.19;23:30:00;1;388;12698;0;2;0;16477;0;0;0;0;3;0;10881;0;0;0;0;4;0;12462;0;0;0;0;5;0;41995;0;0;0;0;0;0;6;0;32140;0;0;0;0;0;0;7;0;29487;0;0;0;0;8;0;28625;0;0;0;0;9;0;15437;0;0;0;0
19.01.19;23:25:00;1;360;12666;0;2;0;16477;0;0;0;0;3;0;10881;0;0;0;0;4;0;12462;0;0;0;0;5;0;41995;0;0;0;0;0;0;6;0;32140;0;0;0;0;0;0;7;0;29487;0;0;0;0;8;0;28625;0;0;0;0;9;0;15437;0;0;0;0
19.01.19;23:20:00;1;361;12636;0;2;0;16477;0;0;0;0;3;0;10881;0;0;0;0;4;0;12462;0;0;0;0;5;0;41995;0;0;0;0;0;0;6;0;32140;0;0;0;0;0;0;7;0;29487;0;0;0;0;8;0;28625;0;0;0;0;9;0;15437;0;0;0;0
19.01.19;23:15:00;1;364;12606;0;2;0;16477;0;0;0;0;3;0;10881;0;0;0;0;4;0;12462;0;0;0;0;5;0;41995;0;0;0;0;0;0;6;0;32140;0;0;0;0;0;0;7;0;29487;0;0;0;0;8;0;28625;0;0;0;0;9;0;15437;0;0;0;0
19.01.19;23:10:00;1;717;12575;0;2;0;16477;0;0;0;0;3;0;10881;0;0;0;0;4;0;12462;0;0;0;0;5;0;41995;0;0;0;0;0;0;6;0;32140;0;0;0;0;0;0;7;0;29487;0;0;0;0;8;0;28625;0;0;0;0;9;0;15437;0;0;0;0
19.01.19;23:05:00;1;376;12523;0;2;0;16477;0;0;0;0;3;0;10881;0;0;0;0;4;0;12462;0;0;0;0;5;0;41995;0;0;0;0;0;0;6;0;32140;0;0;0;0;0;0;7;0;29487;0;0;0;0;8;0;28625;0;0;0;0;9;0;15437;0;0;0;0
19.01.19;23:00:00;1;384;12491;0;2;0;16477;0;0;0;0;3;0;10881;0;0;0;0;4;0;12462;0;0;0;0;5;0;41995;0;0;0;0;0;0;6;0;32140;0;0;0;0;0;0;7;0;29487;0;0;0;0;8;0;28625;0;0;0;0;9;0;15437;0;0;0;0
19.01.19;22:55:00;1;404;12459;0;2;0;16477;0;0;0;0;3;0;10881;0;0;0;0;4;0;12462;0;0;0;0;5;0;41995;2;0;0;0;0;0;6;0;32140;2;0;0;0;0;0;7;0;29487;0;0;0;0;8;0;28625;0;0;0;0;9;0;15437;0;0;0;0
19.01.19;22:50:00;1;422;12425;0;2;0;16477;0;0;0;0;3;0;10881;0;0;0;0;4;0;12462;0;0;0;0;5;0;41995;2;0;0;0;0;0;6;0;32140;2;0;0;0;0;0;7;0;29487;0;0;0;0;8;0;28625;0;0;0;0;9;0;15437;0;0;0;0
19.01.19;22:45:00;1;442;12390;0;2;0;16477;0;0;0;0;3;0;10881;0;0;0;0;4;0;12462;0;0;0;0;5;0;41995;2;0;0;0;0;0;6;0;32140;2;0;0;0;0;0;7;0;29487;0;0;0;0;8;0;28625;0;0;0;0;9;0;15437;0;0;0;0
19.01.19;22:40:00;1;469;12353;0;2;0;16477;0;0;0;0;3;0;10881;0;0;0;0;4;0;12462;0;0;0;0;5;0;41995;2;0;0;0;0;0;6;0;32140;2;0;0;0;0;0;7;0;29487;0;0;0;0;8;0;28625;0;0;0;0;9;0;15437;0;0;0;0
19.01.19;22:35:00;1;467;12314;0;2;0;16477;0;0;0;0;3;0;10881;0;0;0;0;4;0;12462;0;0;0;0;5;0;41995;2;0;0;0;0;0;6;0;32140;2;0;0;0;0;0;7;0;29487;0;0;0;0;8;0;28625;0;0;0;0;9;0;15437;0;0;0;0
19.01.19;22:30:00;1;420;12274;0;2;0;16477;0;0;0;0;3;0;10881;0;0;0;0;4;0;12462;0;0;0;0;5;0;41995;2;0;0;0;0;0;6;0;32140;2;0;0;0;0;0;7;0;29487;0;0;0;0;8;0;28625;0;0;0;0;9;0;15437;0;0;0;0
19.01.19;22:25:00;1;425;12239;0;2;0;16477;0;0;0;0;3;0;10881;0;0;0;0;4;0;12462;0;0;0;0;5;0;41995;2;0;0;0;0;0;6;0;32140;2;0;0;0;0;0;7;0;29487;0;0;0;0;8;0;28625;0;0;0;0;9;0;15437;0;0;0;0
19.01.19;22:20:00;1;256;12204;0;2;0;16477;0;0;0;0;3;0;10881;0;0;0;0;4;0;12462;0;0;0;0;5;0;41995;2;0;0;0;0;0;6;0;32140;2;0;0;0;0;0;7;0;29487;0;0;0;0;8;0;28625;0;0;0;0;9;0;15437;0;0;0;0
19.01.19;22:15:00;1;246;12183;0;2;0;16477;0;0;0;0;3;0;10881;0;0;0;0;4;0;12462;0;0;0;0;5;0;41995;2;0;0;0;0;0;6;0;32140;2;0;0;0;0;0;7;0;29487;0;0;0;0;8;0;28625;0;0;0;0;9;0;15437;0;0;0;0
19.01.19;22:10:00;1;249;12162;0;2;0;16477;0;0;0;0;3;0;10881;0;0;0;0;4;0;12462;0;0;0;0;5;0;41995;2;0;0;0;0;0;6;0;32140;2;0;0;0;0;0;7;0;29487;0;0;0;0;8;0;28625;0;0;0;0;9;0;15437;0;0;0;0
19.01.19;22:05:00;1;276;12141;0;2;0;16477;0;0;0;0;3;0;10881;0;0;0;0;4;0;12462;0;0;0;0;5;0;41995;2;0;0;0;0;0;6;0;32140;2;0;0;0;0;0;7;0;29487;0;0;0;0;8;0;28625;0;0;0;0;9;0;15437;0;0;0;0
19.01.19;22:00:00;1;210;12119;0;2;0;16477;0;0;0;0;3;0;10881;0;0;0;0;4;0;12462;0;0;0;0;5;0;41995;2;0;0;0;0;0;6;0;32140;2;0;0;0;0;0;7;0;29487;0;0;0;0;8;0;28625;0;0;0;0;9;0;15437;0;0;0;0
19.01.19;21:55:00;1;213;12101;0;2;0;16477;0;0;0;0;3;0;10881;0;0;0;0;4;0;12462;0;0;0;0;5;0;41995;2;0;0;0;0;0;6;0;32140;2;0;0;0;0;0;7;0;29487;0;0;0;0;8;0;28625;0;0;0;0;9;0;15437;0;0;0;0
19.01.19;21:50:00;1;222;12083;0;2;0;16477;0;0;0;0;3;0;10881;0;0;0;0;4;0;12462;0;0;0;0;5;0;41995;2;0;0;0;0;0;6;0;32140;2;0;0;0;0;0;7;0;29487;0;0;0;0;8;0;28625;0;0;0;0;9;0;15437;0;0;0;0
19.01.19;21:45:00;1;251;12064;0;2;0;16477;0;0;0;0;3;0;10881;0;0;0;0;4;0;12462;0;0;0;0;5;0;41995;2;0;0;0;0;0;6;0;32140;2;0;0;0;0;0;7;0;29487;0;0;0;0;8;0;28625;0;0;0;0;9;0;15437;0;0;0;0
19.01.19;21:40:00;1;252;12043;0;2;0;16477;0;0;0;0;3;0;10881;0;0;0;0;4;0;12462;0;0;0;0;5;0;41995;2;0;0;0;0;0;6;0;32140;2;0;0;0;0;0;7;0;29487;0;0;0;0;8;0;28625;0;0;0;0;9;0;15437;0;0;0;0
19.01.19;21:35:00;1;243;12022;0;2;0;16477;0;0;0;0;3;0;10881;0;0;0;0;4;0;12462;0;0;0;0;5;0;41995;2;0;0;0;0;0;6;0;32140;2;0;0;0;0;0;7;0;29487;0;0;0;0;8;0;28625;0;0;0;0;9;0;15437;0;0;0;0
19.01.19;21:30:00;1;209;12002;0;2;0;16477;0;0;0;0;3;0;10881;0;0;0;0;4;0;12462;0;0;0;0;5;0;41995;2;0;0;0;0;0;6;0;32140;2;0;0;0;0;0;7;0;29487;0;0;0;0;8;0;28625;0;0;0;0;9;0;15437;0;0;0;0
19.01.19;21:25:00;1;210;11985;0;2;0;16477;0;0;0;0;3;0;10881;0;0;0;0;4;0;12462;0;0;0;0;5;0;41995;2;0;0;0;0;0;6;0;32140;2;0;0;0;0;0;7;0;29487;0;0;0;0;8;0;28625;0;0;0;0;9;0;15437;0;0;0;0
19.01.19;21:20:00;1;212;11967;0;2;0;16477;0;0;0;0;3;0;10881;0;0;0;0;4;0;12462;0;0;0;0;5;0;41995;2;0;0;0;0;0;6;0;32140;2;0;0;0;0;0;7;0;29487;0;0;0;0;8;0;28625;0;0;0;0;9;0;15437;0;0;0;0
19.01.19;21:15:00;1;228;11949;0;2;0;16477;0;0;0;0;3;0;10881;0;0;0;0;4;0;12462;0;0;0;0;5;0;41995;2;0;0;0;0;0;6;0;32140;2;0;0;0;0;0;7;0;29487;0;0;0;0;8;0;28625;0;0;0;0;9;0;15437;0;0;0;0
19.01.19;21:10:00;1;221;11930;0;2;0;16477;0;0;0;0;3;0;10881;0;0;0;0;4;0;12462;0;0;0;0;5;0;41995;2;0;0;0;0;0;6;0;32140;2;0;0;0;0;0;7;0;29487;0;0;0;0;8;0;28625;0;0;0;0;9;0;15437;0;0;0;0
19.01.19;21:05:00;1;212;11912;0;2;0;16477;0;0;0;0;3;0;10881;0;0;0;0;4;0;12462;0;0;0;0;5;0;41995;2;0;0;0;0;0;6;0;32140;2;0;0;0;0;0;7;0;29487;0;0;0;0;8;0;28625;0;0;0;0;9;0;15437;0;0;0;0
19.01.19;21:00:00;1;214;11894;0;2;0;16477;0;0;0;0;3;0;10881;0;0;0;0;4;0;12462;0;0;0;0;5;0;41995;2;0;0;0;0;0;6;0;32140;2;0;0;0;0;0;7;0;29487;0;0;0;0;8;0;28625;0;0;0;0;9;0;15437;0;0;0;0
19.01.19;20:55:00;1;213;11876;0;2;0;16477;0;0;0;0;3;0;10881;0;0;0;0;4;0;12462;0;0;0;0;5;0;41995;2;0;0;0;0;0;6;0;32140;2;0;0;0;0;0;7;0;29487;0;0;0;0;8;0;28625;0;0;0;0;9;0;15437;0;0;0;0
19.01.19;20:50:00;1;267;11858;0;2;0;16477;0;0;0;0;3;0;10881;0;0;0;0;4;0;12462;0;0;0;0;5;0;41995;2;0;0;0;0;0;6;0;32140;2;0;0;0;0;0;7;0;29487;0;0;0;0;8;0;28625;0;0;0;0;9;0;15437;0;0;0;0
19.01.19;20:45:00;1;319;11835;0;2;0;16477;0;0;0;0;3;0;10881;0;0;0;0;4;0;12462;0;0;0;0;5;0;41995;2;0;0;0;0;0;6;0;32140;2;0;0;0;0;0;7;0;29487;0;0;0;0;8;0;28625;0;0;0;0;9;0;15437;0;0;0;0
19.01.19;20:40:00;1;317;11808;0;2;0;16477;0;0;0;0;3;0;10881;0;0;0;0;4;0;12462;0;0;0;0;5;0;41995;2;0;0;0;0;0;6;0;32140;2;0;0;0;0;0;7;0;29487;0;0;0;0;8;0;28625;0;0;0;0;9;0;15437;0;0;0;0
19.01.19;20:35:00;1;275;11782;0;2;0;16477;0;0;0;0;3;0;10881;0;0;0;0;4;0;12462;0;0;0;0;5;0;41995;2;0;0;0;0;0;6;0;32140;2;0;0;0;0;0;7;0;29487;0;0;0;0;8;0;28625;0;0;0;0;9;0;15437;0;0;0;0
19.01.19;20:30:00;1;277;11759;0;2;0;16477;0;0;0;0;3;0;10881;0;0;0;0;4;0;12462;0;0;0;0;5;0;41995;2;0;0;0;0;0;6;0;32140;2;0;0;0;0;0;7;0;29487;0;0;0;0;8;0;28625;0;0;0;0;9;0;15437;0;0;0;0
19.01.19;20:25:00;1;281;11736;0;2;0;16477;0;0;0;0;3;0;10881;0;0;0;0;4;0;12462;0;0;0;0;5;0;41995;2;0;0;0;0;0;6;0;32140;2;0;0;0;0;0;7;0;29487;0;0;0;0;8;0;28625;0;0;0;0;9;0;15437;0;0;0;0
19.01.19;20:20:00;1;279;11712;0;2;0;16477;0;0;0;0;3;0;10881;0;0;0;0;4;0;12462;0;0;0;0;5;0;41995;2;0;0;0;0;0;6;0;32140;2;0;0;0;0;0;7;0;29487;0;0;0;0;8;0;28625;0;0;0;0;9;0;15437;0;0;0;0
19.01.19;20:15:00;1;253;11689;0;2;0;16477;0;0;0;0;3;0;10881;0;0;0;0;4;0;12462;0;0;0;0;5;0;41995;2;0;0;0;0;0;6;0;32140;2;0;0;0;0;0;7;0;29487;0;0;0;0;8;0;28625;0;0;0;0;9;0;15437;0;0;0;0
19.01.19;20:10:00;1;231;11668;0;2;0;16477;0;0;0;0;3;0;10881;0;0;0;0;4;0;12462;0;0;0;0;5;0;41995;2;0;0;0;0;0;6;0;32140;2;0;0;0;0;0;7;0;29487;0;0;0;0;8;0;28625;0;0;0;0;9;0;15437;0;0;0;0
19.01.19;20:05:00;1;232;11649;0;2;0;16477;0;0;0;0;3;0;10881;0;0;0;0;4;0;12462;0;0;0;0;5;0;41995;2;0;0;0;0;0;6;0;32140;2;0;0;0;0;0;7;0;29487;0;0;0;0;8;0;28625;0;0;0;0;9;0;15437;0;0;0;0
19.01.19;20:00:00;1;213;11630;0;2;0;16477;0;0;0;0;3;0;10881;0;0;0;0;4;0;12462;0;0;0;0;5;0;41995;2;0;0;0;0;0;6;0;32140;2;0;0;0;0;0;7;0;29487;0;0;0;0;8;0;28625;0;0;0;0;9;0;15437;0;0;0;0
19.01.19;19:55:00;1;224;11612;0;2;0;16477;0;0;0;0;3;0;10881;0;0;0;0;4;0;12462;0;0;0;0;5;0;41995;2;0;0;0;0;0;6;0;32140;2;0;0;0;0;0;7;0;29487;0;0;0;0;8;0;28625;0;0;0;0;9;0;15437;0;0;0;0
19.01.19;19:50:00;1;254;11593;0;2;0;16477;0;0;0;0;3;0;10881;0;0;0;0;4;0;12462;0;0;0;0;5;0;41995;2;0;0;0;0;0;6;0;32140;2;0;0;0;0;0;7;0;29487;0;0;0;0;8;0;28625;0;0;0;0;9;0;15437;0;0;0;0
19.01.19;19:45:00;1;255;11571;0;2;0;16477;0;0;0;0;3;0;10881;0;0;0;0;4;0;12462;0;0;0;0;5;0;41995;2;0;0;0;0;0;6;0;32140;2;0;0;0;0;0;7;0;29487;0;0;0;0;8;0;28625;0;0;0;0;9;0;15437;0;0;0;0
19.01.19;19:40:00;1;218;11550;0;2;0;16477;0;0;0;0;3;0;10881;0;0;0;0;4;0;12462;0;0;0;0;5;0;41995;2;0;0;0;0;0;6;0;32140;2;0;0;0;0;0;7;0;29487;0;0;0;0;8;0;28625;0;0;0;0;9;0;15437;0;0;0;0
19.01.19;19:35:00;1;211;11531;0;2;0;16477;0;0;0;0;3;0;10881;0;0;0;0;4;0;12462;0;0;0;0;5;0;41995;2;0;0;0;0;0;6;0;32140;2;0;0;0;0;0;7;0;29487;0;0;0;0;8;0;28625;0;0;0;0;9;0;15437;0;0;0;0
19.01.19;19:30:00;1;211;11514;0;2;0;16477;0;0;0;0;3;0;10881;0;0;0;0;4;0;12462;0;0;0;0;5;0;41995;2;0;0;0;0;0;6;0;32140;2;0;0;0;0;0;7;0;29487;0;0;0;0;8;0;28625;0;0;0;0;9;0;15437;0;0;0;0
19.01.19;19:25:00;1;211;11496;0;2;0;16477;0;0;0;0;3;0;10881;0;0;0;0;4;0;12462;0;0;0;0;5;0;41995;2;0;0;0;0;0;6;0;32140;2;0;0;0;0;0;7;0;29487;0;0;0;0;8;0;28625;0;0;0;0;9;0;15437;0;0;0;0
19.01.19;19:20:00;1;229;11478;0;2;0;16477;0;0;0;0;3;0;10881;0;0;0;0;4;0;12462;0;0;0;0;5;0;41995;2;0;0;0;0;0;6;0;32140;2;0;0;0;0;0;7;0;29487;0;0;0;0;8;0;28625;0;0;0;0;9;0;15437;0;0;0;0
19.01.19;19:15:00;1;259;11459;0;2;0;16477;0;0;0;0;3;0;10881;0;0;0;0;4;0;12462;0;0;0;0;5;0;41995;2;0;0;0;0;0;6;0;32140;2;0;0;0;0;0;7;0;29487;0;0;0;0;8;0;28625;0;0;0;0;9;0;15437;0;0;0;0
19.01.19;19:10:00;1;255;11438;0;2;0;16477;0;0;0;0;3;0;10881;0;0;0;0;4;0;12462;0;0;0;0;5;0;41995;2;0;0;0;0;0;6;0;32140;2;0;0;0;0;0;7;0;29487;0;0;0;0;8;0;28625;0;0;0;0;9;0;15437;0;0;0;0
19.01.19;19:05:00;1;257;11416;0;2;0;16477;0;0;0;0;3;0;10881;0;0;0;0;4;0;12462;0;0;0;0;5;0;41995;2;0;0;0;0;0;6;0;32140;2;0;0;0;0;0;7;0;29487;0;0;0;0;8;0;28625;0;0;0;0;9;0;15437;0;0;0;0
19.01.19;19:00:00;1;256;11395;0;2;0;16477;0;0;0;0;3;0;10881;0;0;0;0;4;0;12462;0;0;0;0;5;0;41995;2;0;0;0;0;0;6;0;32140;2;0;0;0;0;0;7;0;29487;0;0;0;0;8;0;28625;0;0;0;0;9;0;15437;0;0;0;0
19.01.19;18:55:00;1;298;11373;0;2;0;16477;0;0;0;0;3;0;10881;0;0;0;0;4;0;12462;0;0;0;0;5;0;41995;2;0;0;0;0;0;6;0;32140;2;0;0;0;0;0;7;0;29487;0;0;0;0;8;0;28625;0;0;0;0;9;0;15437;0;0;0;0
19.01.19;18:50:00;1;300;11348;0;2;0;16477;0;0;0;0;3;0;10881;0;0;0;0;4;0;12462;0;0;0;0;5;0;41995;2;0;0;0;0;0;6;0;32140;2;0;0;0;0;0;7;0;29487;0;0;0;0;8;0;28625;0;0;0;0;9;0;15437;0;0;0;0
19.01.19;18:45:00;1;290;11323;0;2;0;16477;0;0;0;0;3;0;10881;0;0;0;0;4;0;12462;0;0;0;0;5;0;41995;2;0;0;0;0;0;6;0;32140;2;0;0;0;0;0;7;0;29487;0;0;0;0;8;0;28625;0;0;0;0;9;0;15437;0;0;0;0
19.01.19;18:40:00;1;286;11299;0;2;0;16477;0;0;0;0;3;0;10881;0;0;0;0;4;0;12462;0;0;0;0;5;0;41995;2;0;0;0;0;0;6;0;32140;2;0;0;0;0;0;7;0;29487;0;0;0;0;8;0;28625;0;0;0;0;9;0;15437;0;0;0;0
19.01.19;18:35:00;1;314;11275;0;2;0;16477;0;0;0;0;3;0;10881;0;0;0;0;4;0;12462;0;0;0;0;5;0;41995;2;0;0;0;0;0;6;0;32140;2;0;0;0;0;0;7;0;29487;0;0;0;0;8;0;28625;0;0;0;0;9;0;15437;0;0;0;0
19.01.19;18:30:00;1;283;11251;0;2;0;16477;0;0;0;0;3;0;10881;0;0;0;0;4;0;12462;0;0;0;0;5;0;41995;2;0;0;0;0;0;6;0;32140;2;0;0;0;0;0;7;0;29487;0;0;0;0;8;0;28625;0;0;0;0;9;0;15437;0;0;0;0
19.01.19;18:25:00;1;295;11227;0;2;0;16477;0;0;0;0;3;0;10881;0;0;0;0;4;0;12462;0;0;0;0;5;0;41995;2;0;0;0;0;0;6;0;32140;2;0;0;0;0;0;7;0;29487;0;0;0;0;8;0;28625;0;0;0;0;9;0;15437;0;0;0;0
19.01.19;18:20:00;1;291;11203;0;2;0;16477;0;0;0;0;3;0;10881;0;0;0;0;4;0;12462;0;0;0;0;5;0;41995;2;0;0;0;0;0;6;0;32140;2;0;0;0;0;0;7;0;29487;0;0;0;0;8;0;28625;0;0;0;0;9;0;15437;0;0;0;0
19.01.19;18:15:00;1;277;11179;0;2;0;16477;0;0;0;0;3;0;10881;0;0;0;0;4;0;12462;0;0;0;0;5;0;41995;2;0;0;0;0;0;6;0;32140;2;0;0;0;0;0;7;0;29487;0;0;0;0;8;0;28625;0;0;0;0;9;0;15437;0;0;0;0
19.01.19;18:10:00;1;275;11156;0;2;0;16477;0;0;0;0;3;0;10881;0;0;0;0;4;0;12462;0;0;0;0;5;0;41995;2;0;0;0;0;0;6;0;32140;2;0;0;0;0;0;7;0;29487;0;0;0;0;8;0;28625;0;0;0;0;9;0;15437;0;0;0;0
19.01.19;18:05:00;1;295;11132;0;2;0;16477;0;0;0;0;3;0;10881;0;0;0;0;4;0;12462;0;0;0;0;5;0;41995;2;0;0;0;0;0;6;0;32140;2;0;0;0;0;0;7;0;29487;0;0;0;0;8;0;28625;0;0;0;0;9;0;15437;0;0;0;0
19.01.19;18:00:00;1;226;11111;0;2;0;16477;0;0;0;0;3;0;10881;0;0;0;0;4;0;12462;0;0;0;0;5;0;41995;2;0;0;0;0;0;6;0;32140;2;0;0;0;0;0;7;0;29487;0;0;0;0;8;0;28625;0;0;0;0;9;0;15437;0;0;0;0
19.01.19;17:55:00;1;252;11093;0;2;0;16477;0;0;0;0;3;0;10881;0;0;0;0;4;0;12462;0;0;0;0;5;0;41995;2;0;0;0;0;0;6;0;32140;2;0;0;0;0;0;7;0;29487;0;0;0;0;8;0;28625;0;0;0;0;9;0;15437;0;0;0;0
19.01.19;17:50:00;1;254;11071;0;2;0;16477;0;0;0;0;3;0;10881;0;0;0;0;4;0;12462;0;0;0;0;5;0;41995;2;0;0;0;0;0;6;0;32140;2;0;0;0;0;0;7;0;29487;0;0;0;0;8;0;28625;0;0;0;0;9;0;15437;0;0;0;0
19.01.19;17:45:00;1;217;11050;0;2;0;16477;0;0;0;0;3;0;10881;0;0;0;0;4;0;12462;0;0;0;0;5;0;41995;2;0;0;0;0;0;6;0;32140;2;0;0;0;0;0;7;0;29487;0;0;0;0;8;0;28625;0;0;0;0;9;0;15437;0;0;0;0
19.01.19;17:40:00;1;211;11031;0;2;0;16477;0;0;0;0;3;0;10881;0;0;0;0;4;0;12462;0;0;0;0;5;0;41995;2;0;0;0;0;0;6;0;32140;2;0;0;0;0;0;7;0;29487;0;0;0;0;8;0;28625;0;0;0;0;9;0;15437;0;0;0;0
19.01.19;17:35:00;1;211;11014;0;2;0;16477;0;0;0;0;3;0;10881;0;0;0;0;4;0;12462;0;0;0;0;5;0;41995;2;0;0;0;0;0;6;0;32140;2;0;0;0;0;0;7;0;29487;0;0;0;0;8;0;28625;0;0;0;0;9;0;15437;0;0;0;0
19.01.19;17:30:00;1;211;10996;0;2;0;16477;0;0;0;0;3;0;10881;0;0;0;0;4;0;12462;0;0;0;0;5;0;41995;2;0;0;0;0;0;6;0;32140;2;0;0;0;0;0;7;0;29487;0;0;0;0;8;0;28625;0;0;0;0;9;0;15437;0;0;0;0
19.01.19;17:25:00;1;227;10978;0;2;0;16477;0;0;0;0;3;0;10881;0;0;0;0;4;0;12462;0;0;0;0;5;0;41995;2;0;0;0;0;0;6;0;32140;2;0;0;0;0;0;7;0;29487;0;0;0;0;8;0;28625;0;0;0;0;9;0;15437;0;0;0;0
19.01.19;17:20:00;1;229;10959;0;2;0;16477;0;0;0;0;3;0;10881;0;0;0;0;4;0;12462;0;0;0;0;5;0;41995;2;0;0;0;0;0;6;0;32140;2;0;0;0;0;0;7;0;29487;0;0;0;0;8;0;28625;0;0;0;0;9;0;15437;0;0;0;0
19.01.19;17:15:00;1;209;10940;0;2;0;16477;0;0;0;0;3;0;10881;0;0;0;0;4;0;12462;0;0;0;0;5;0;41995;2;0;0;0;0;0;6;0;32140;2;0;0;0;0;0;7;0;29487;0;0;0;0;8;0;28625;0;0;0;0;9;0;15437;0;0;0;0
19.01.19;17:10:00;1;210;10923;0;2;0;16477;0;0;225;10;3;0;10881;6;0;288;14;4;0;12462;0;0;0;0;5;0;41995;2;0;0;0;0;0;6;0;32140;0;0;0;0;0;0;7;0;29487;0;0;0;0;8;0;28625;0;0;0;0;9;0;15437;0;0;0;0
19.01.19;17:05:00;1;208;10905;0;2;0;16477;6;0;316;12;3;0;10881;6;0;369;14;4;0;12462;0;0;55;6;5;0;41995;2;0;0;0;0;0;6;0;32140;2;0;0;0;0;0;7;0;29487;0;0;0;0;8;0;28625;0;0;0;0;9;0;15437;0;0;0;0
19.01.19;17:00:00;1;249;10888;0;2;0;16477;6;0;368;12;3;0;10881;3;4;412;15;4;0;12462;1;0;115;8;5;0;41995;1;0;0;354;352;22;6;0;32140;2;6;3;144;386;16;7;0;29487;0;0;163;9;8;0;28625;0;0;158;9;9;0;15437;0;0;166;6
19.01.19;16:55:00;1;250;10867;0;2;0;16477;6;0;401;13;3;2;10881;6;7;452;15;4;0;12462;1;0;173;9;5;0;41995;23;0;0;421;587;23;6;0;32140;23;5;5;234;557;21;7;0;29487;6;0;359;16;8;0;28625;6;0;350;15;9;0;15437;6;0;349;11
19.01.19;16:50:00;1;239;10846;0;2;0;16477;6;4;406;14;3;1;10881;6;3;506;15;4;0;12462;1;0;211;9;5;8;41994;4;0;0;429;676;23;6;0;32140;23;5;4;253;591;21;7;0;29487;6;1;406;17;8;0;28625;6;0;412;16;9;0;15437;6;1;412;11
19.01.19;16:45:00;1;208;10826;0;2;4;16477;6;10;413;14;3;2;10881;6;5;514;16;4;0;12462;1;0;221;10;5;75;41994;4;7;9;393;620;24;6;27;32140;1;8;23;539;520;22;7;0;29487;6;3;447;17;8;2;28625;3;5;425;16;9;0;15437;6;2;478;11
19.01.19;16:40:00;1;208;10808;0;2;20;16476;6;36;399;15;3;1;10881;6;6;536;16;4;1;12462;3;1;208;10;5;102;41987;4;28;22;393;620;24;6;72;32137;4;28;48;487;466;23;7;4;29487;6;7;484;18;8;0;28625;6;6;482;17;9;2;15437;6;3;523;12
19.01.19;16:35:00;1;206;10791;0;2;60;16475;4;94;385;16;3;0;10881;6;0;574;17;4;9;12462;3;9;198;11;5;148;41978;4;51;40;393;620;25;6;100;32131;4;41;64;487;466;23;7;27;29487;6;59;408;18;8;15;28625;6;29;459;18;9;1;15437;6;6;543;12
19.01.19;16:30:00;1;210;10774;0;2;99;16470;4;134;378;17;3;16;10881;3;28;545;17;4;38;12461;3;39;198;11;5;210;41965;4;89;84;393;620;25;6;135;32123;4;51;68;487;466;23;7;78;29485;4;112;429;19;8;67;28623;4;99;437;18;9;4;15437;6;8;566;12
19.01.19;16:25:00;1;269;10756;0;2;155;16462;4;193;392;17;3;78;10879;4;119;502;18;4;73;12458;3;76;203;11;5;281;41948;4;117;104;393;620;25;6;182;32111;4;69;80;487;466;23;7;143;29478;4;182;455;19;8;112;28618;4;157;448;18;9;7;15436;4;13;569;13
19.01.19;16:20:00;1;269;10733;0;2;434;16449;4;485;403;19;3;205;10873;4;249;456;18;4;154;12452;5;160;231;12;5;379;41924;4;173;151;398;635;25;6;288;32095;4;125;149;532;525;23;7;228;29467;4;265;454;20;8;191;28609;4;228;458;19;9;81;15435;4;114;508;14
19.01.19;16:15:00;1;270;10711;0;2;1073;16414;4;1140;406;20;3;565;10856;4;617;453;19;4;362;12439;5;377;200;12;5;924;41891;4;427;411;435;742;26;6;819;32069;4;392;435;622;596;24;7;561;29448;4;609;437;20;8;323;28593;4;366;469;19;9;118;15429;4;152;536;14
19.01.19;16:10:00;1;272;10688;0;2;1005;16326;4;1075;406;20;3;530;10810;4;584;447;19;4;360;12409;5;374;202;12;5;1116;41811;4;549;467;435;720;26;6;861;31999;4;421;444;624;585;24;7;983;29403;4;1043;481;21;8;438;28567;4;480;441;20;9;151;15419;4;184;539;15
19.01.19;16:05:00;1;289;10665;0;2;1502;16244;4;1587;400;21;3;809;10766;4;874;458;20;4;463;12380;5;483;199;13;5;1683;41718;4;859;726;443;721;26;6;1288;31927;4;636;651;623;594;24;7;1720;29322;4;1809;464;21;8;721;28531;4;769;413;20;9;184;15406;4;221;557;15
19.01.19;16:00:00;1;314;10641;0;2;1679;16120;4;1772;404;22;3;902;10700;4;968;453;20;4;495;12341;5;516;201;13;5;1908;41575;4;992;827;441;732;26;6;1484;31818;4;758;761;631;599;24;7;1779;29181;4;1874;527;22;8;982;28471;4;1041;429;21;9;208;15391;4;242;563;15
19.01.19;15:55:00;1;313;10615;0;2;1808;15981;4;1906;408;22;3;977;10625;4;1047;463;20;4;503;12300;5;524;202;13;5;2125;41416;4;1109;933;451;725;26;6;1653;31693;4;832;841;635;596;24;7;1745;29033;4;1843;537;22;8;1285;28390;4;1352;395;21;9;215;15374;4;253;533;16
19.01.19;15:50:00;1;260;10588;0;2;1526;15830;4;1614;412;22;3;824;10544;4;888;456;20;4;465;12258;5;485;242;13;5;1952;41236;4;1008;844;447;721;27;6;1494;31554;4;775;779;628;596;24;7;1667;28886;4;1760;535;22;8;1419;28284;4;1489;462;22;9;203;15356;4;233;390;16
19.01.19;15:45:00;1;253;10566;0;2;1352;15701;4;1432;408;22;3;734;10474;4;796;459;21;4;454;12219;5;473;255;14;5;1846;41074;4;946;793;445;724;27;6;1413;31430;4;713;726;621;598;24;7;1553;28746;4;1631;525;23;8;1679;28166;4;1771;464;23;9;295;15339;4;327;356;17
19.01.19;15:40:00;1;253;10544;0;2;912;15589;4;977;395;22;3;497;10413;4;548;447;21;4;396;12181;5;412;254;14;5;1351;40926;4;681;571;439;710;27;6;1029;31316;4;498;498;616;592;24;7;1290;28616;4;1363;507;23;8;1213;28027;4;1284;484;23;9;350;15314;4;386;361;18
19.01.19;15:35:00;1;253;10523;0;2;1390;15512;4;1473;404;24;3;751;10371;4;813;455;22;4;508;12148;5;529;257;14;5;1990;40812;4;1033;855;441;726;27;6;1502;31229;4;760;756;618;590;25;7;2003;28508;4;2103;503;24;8;1883;27924;4;1979;500;24;9;655;15285;4;698;367;19
19.01.19;15:30:00;1;252;10502;0;2;1320;15399;4;1403;405;25;3;728;10310;4;786;447;22;4;522;12106;5;543;255;15;5;1958;40646;4;1016;842;442;708;28;6;1490;31103;4;763;771;615;590;25;7;1946;28346;4;2046;497;25;8;1860;27774;4;1958;487;24;9;715;15233;4;766;411;20
19.01.19;15:25:00;1;252;10481;0;2;2194;15289;4;2316;406;26;3;1221;10249;4;1302;450;23;4;700;12063;5;729;251;15;5;3176;40479;4;1701;1386;450;727;28;6;2406;30977;4;1213;1208;626;595;25;7;3213;28182;4;3367;501;25;8;3092;27616;4;3246;500;25;9;1310;15173;4;1381;445;21
19.01.19;15:20:00;1;257;10460;0;2;1940;15110;4;2050;416;26;3;1073;10150;4;1147;448;23;4;674;12005;5;702;256;15;5;2914;40212;4;1543;1269;449;716;28;6;2213;30774;4;1102;1094;627;593;25;7;2902;27925;4;3052;502;25;8;2832;27367;4;2974;497;25;9;1304;15068;4;1385;492;22
19.01.19;15:15:00;1;1084;10438;0;2;2254;14948;4;2383;426;27;3;1212;10061;4;1292;474;24;4;722;11949;5;752;250;16;5;3211;39971;4;1703;1405;449;726;28;6;2414;30591;4;1252;1236;623;590;25;7;3003;27682;4;3154;498;25;8;2904;27130;4;3046;493;25;9;1447;14959;4;1538;515;23
19.01.19;15:10:00;1;500;10332;0;2;2279;14762;4;2410;426;27;3;1321;9961;4;1408;497;24;4;758;11889;5;789;243;16;5;3434;39702;4;1837;1503;449;718;29;6;2606;30389;4;1325;1309;622;594;25;7;3360;27428;4;3521;500;26;8;3289;26883;4;3447;493;25;9;1733;14836;4;1835;542;23
19.01.19;15:05:00;1;307;10307;0;2;2208;14571;4;2335;420;28;3;1335;9849;4;1422;517;24;4;768;11826;5;799;259;16;5;3361;39419;4;1802;1467;448;715;29;6;2553;30172;4;1302;1280;623;592;25;7;3179;27144;4;3319;496;26;8;3097;26606;4;3251;498;26;9;1657;14690;4;1760;544;23
19.01.19;15:00:00;1;2364;10254;0;2;2156;14388;4;2281;422;28;3;1346;9739;4;1438;529;25;4;782;11762;5;815;258;17;5;3358;39142;4;1791;1468;445;705;29;6;2556;29962;4;1321;1305;624;590;26;7;3107;26880;4;3263;498;27;8;3006;26349;4;3163;501;26;9;1632;14552;4;1732;543;24
19.01.19;14:55:00;1;2403;10056;0;2;2203;14208;4;2333;424;29;3;1400;9627;4;1499;542;25;4;819;11697;5;853;259;17;5;3459;38863;4;1866;1507;444;710;30;6;2611;29749;4;1342;1329;618;591;26;7;3004;26621;4;3146;484;27;8;2854;26099;4;3003;499;27;9;1606;14416;4;1709;554;24
19.01.19;14:50:00;1;2351;9856;0;2;2409;14023;4;2548;421;29;3;1540;9510;4;1645;542;26;4;902;11629;5;939;263;17;5;3895;38570;4;2091;1716;444;710;30;6;2964;29527;4;1520;1498;617;593;26;7;3490;26370;4;3668;492;27;8;3390;25860;4;3554;495;27;9;1828;14282;4;1941;538;25
19.01.19;14:45:00;1;2365;9660;0;2;2441;13822;4;2583;419;30;3;1556;9382;4;1659;528;26;4;913;11554;5;951;261;18;5;3954;38248;4;2130;1745;438;707;30;6;3001;29282;4;1537;1522;612;588;26;7;3132;26080;4;3304;492;28;8;2994;25579;4;3140;498;28;9;1820;14130;4;1926;548;25
19.01.19;14:40:00;1;2384;9463;0;2;2688;13619;4;2836;419;31;3;1726;9252;4;1834;531;26;4;996;11477;5;1037;252;18;5;4483;37912;4;2412;1991;438;708;30;6;3423;29027;4;1753;1722;611;585;26;7;3734;25814;4;3922;492;28;8;3715;25323;4;3888;494;28;9;2064;13979;4;2183;543;26
19.01.19;14:35:00;1;2384;9264;0;2;2970;13397;4;3134;418;31;3;1909;9109;4;2022;527;27;4;1087;11395;5;1133;249;18;5;5027;37535;4;2730;2237;441;706;30;6;3820;28741;4;1971;1939;611;587;26;7;3852;25503;4;4032;499;28;8;3838;25013;4;4032;486;28;9;2268;13807;4;2399;548;26
19.01.19;14:30:00;1;2373;9065;0;2;3152;13149;4;3324;414;32;3;2015;8950;4;2136;534;27;4;1140;11304;5;1187;237;19;5;5377;37113;4;2937;2389;442;709;31;6;4070;28421;4;2089;2054;613;591;26;7;4559;25187;4;4783;488;29;8;4449;24709;4;4664;486;28;9;2455;13619;4;2599;540;27
19.01.19;14:25:00;1;2376;8867;0;2;3148;12887;4;3318;416;31;3;2026;8782;4;2149;537;26;4;1228;11209;5;1279;245;19;5;5478;36663;4;2962;2419;443;712;31;6;4154;28079;4;2142;2099;618;590;26;7;4563;24807;4;4789;485;29;8;4506;24340;4;4729;492;29;9;2486;13414;4;2624;551;26